Flag Weather past 2 weeks in Augusta, Maine, U.S.A.

Now
18 °F

Overcast.


Feels Like: 11 °F
Forecast: 19 / 26 °F
Wind: 5 mph from North

Location: Augusta State Airport

Current Time: Nov 28, 2014 at 5:19:58 AM

Latest Report: Nov 28, 2014 at 4:53 AM


Visibility: 10 mi

Pressure: 30.03 "Hg

Humidity: 88%

Dew point: 15 °F

Location of AugustaLocation

Historic Weather in Augusta — Graph

°F

Augusta temperature yesterday

Maximum temperature yesterday: 33 °F (at 12:53 PM)
Minimum temperature yesterday: 21 °F (at 11:53 PM)
Average temperature yesterday: 28 °F

Past Weeks' High & Low Weather Summary

 TemperatureHumidityPressure
High60 °F (Nov 25, 4:53 AM)100% (Nov 14, 7:53 AM)30.34 "Hg (Nov 14, 7:53 AM)
Low19 °F (Nov 21, 11:53 PM)31% (Nov 25, 1:53 PM)29.37 "Hg (Nov 18, 4:04 AM)
Average34 °F66%29.95 "Hg
* Reported Nov 13 3:53 AM — Nov 28 3:53 AM, Augusta, Weather by CustomWeather, © 2014

Note: Actual official high and low records may vary slightly from our data, if they occured in-between our weather recording intervals... More about our weather records

Advertising

Augusta weather history for previous 24 hours

 ConditionsComfort  
Time TempWeatherWind HumidityBarometerVisibility
3:53 AM
Nov 28
19 °FPassing clouds.5 mph88%30.03 "Hg10 mi
2:53 AM20 °FPassing clouds.No wind85%30.04 "Hg10 mi
1:53 AM20 °FPassing clouds.No wind89%30.04 "Hg10 mi
12:53 AM21 °FClear.3 mph85%30.02 "Hg10 mi
11:53 PM
Nov 27
21 °FClear.3 mph85%30.03 "Hg10 mi
10:53 PM23 °FPassing clouds.3 mph74%30.05 "Hg10 mi
9:53 PM23 °FClear.5 mph78%30.05 "Hg10 mi
8:53 PM24 °FClear.5 mph77%30.04 "Hg10 mi
7:53 PM26 °FClear.8 mph71%30.03 "Hg10 mi
6:53 PM26 °FPassing clouds.6 mph74%30.02 "Hg10 mi
5:53 PM27 °FPassing clouds.9 mph75%30.00 "Hg10 mi
4:53 PM28 °FOvercast.12 mph75%29.99 "Hg10 mi
3:53 PM30 °FOvercast.9 mph69%29.98 "Hg10 mi
2:53 PM31 °FOvercast.8 mph69%29.96 "Hg10 mi
1:53 PM32 °FSunny.12 mph66%29.94 "Hg10 mi
12:53 PM33 °FScattered clouds.9 mph63%29.93 "Hg10 mi
11:53 AM32 °FSunny.8 mph66%29.91 "Hg10 mi
10:53 AM30 °FLight snow. Sunny.10 mph72%29.90 "Hg10 mi
9:53 AM29 °FLight snow. Sunny.17 mph72%29.88 "Hg10 mi
8:53 AM28 °FLight snow. Sunny.16 mph72%29.85 "Hg10 mi
7:53 AM26 °FLight snow. Sunny.17 mph81%29.82 "Hg10 mi
6:53 AM26 °FLight snow. Mostly cloudy.18 mph88%29.80 "Hg7 mi
6:03 AM27 °FLight snow. Ice fog.20 mph89%29.77 "Hg1 mi
5:53 AM27 °FLight snow. Ice fog.15 mph92%29.78 "Hg2 mi
5:04 AM27 °FLight snow. Ice fog.20 mph92%29.73 "Hg2 mi
Weather by CustomWeather, © 2014

See weather overviewHow to use our weather pages